CW6242 Weather Reports


Display with metric or nautical units.
time (UTC)temp
F
wind
direction
speed
MPH
gust
MPH
rain 1hr
in
rain 24hr
in
rain mn
in
humidity
%
barometer
mb
20260510234016 60 0.0 1.0 0.00 0.16 0.00 95 1014.5
20260510233016 60 0.0 4.0 0.00 0.16 0.00 95 1014.5
20260510232026 61 0.0 3.0 0.00 0.17 0.00 95 1014.6
20260510231006 61 0.0 0.0 0.00 0.17 0.00 95 1014.7
20260510230006 61 45 2.0 6.0 0.00 0.17 0.00 95 1014.7
20260510225008 61 45 1.0 6.0 0.00 0.17 0.00 95 1014.7
20260510224006 61 45 4.0 7.0 0.00 0.17 0.00 94 1014.5
20260510223008 61 45 5.0 7.0 0.00 0.17 0.00 95 1014.5
20260510222008 61 0.0 7.0 0.00 0.17 0.00 94 1014.5
20260510221028 61 45 1.0 6.0 0.00 0.17 0.00 94 1014.7
20260510220008 61 0.0 0.0 0.00 0.17 0.17 94 1014.7
20260510215007 61 0.0 0.0 0.00 0.17 0.17 94 1014.6
20260510214007 61 0.0 0.0 0.00 0.17 0.17 94 1014.7
20260510213007 61 0.0 0.0 0.00 0.17 0.17 94 1014.6
20260510212007 61 0.0 0.0 0.00 0.17 0.17 94 1014.6
20260510211007 61 0.0 0.0 0.00 0.17 0.17 94 1014.7
20260510210007 61 0.0 0.0 0.00 0.17 0.17 94 1014.6
20260510205007 61 0.0 0.0 0.00 0.17 0.17 94 1014.6
20260510204009 61 0.0 0.0 0.00 0.17 0.17 94 1014.7
20260510203009 61 0.0 0.0 0.00 0.17 0.17 94 1014.7
20260510202029 61 0.0 0.0 0.00 0.17 0.17 94 1014.7
20260510201029 61 0.0 0.0 0.00 0.17 0.17 94 1014.7
20260510200008 61 0.0 0.0 0.00 0.17 0.17 94 1014.8
20260510195009 61 90 1.0 8.0 0.00 0.17 0.17 94 1014.8
20260510194009 61 68 5.0 10.0 0.00 0.17 0.17 94 1014.6
20260510193029 60 0 5.0 11.0 0.00 0.17 0.17 94 1014.6
20260510192008 61 45 3.0 10.0 0.00 0.17 0.17 94 1014.6
20260510191009 61 45 5.0 9.0 0.00 0.17 0.17 94 1014.6
20260510190008 61 45 4.0 9.0 0.00 0.17 0.17 94 1014.5
20260510185028 61 45 4.0 9.0 0.00 0.17 0.17 94 1014.5
20260510184028 61 45 5.0 10.0 0.00 0.17 0.17 94 1014.4
20260510183009 61 45 5.0 12.0 0.00 0.17 0.17 94 1014.2
20260510182008 61 0 5.0 10.0 0.00 0.17 0.17 94 1014.1
20260510181008 61 45 6.0 10.0 0.00 0.17 0.17 94 1014.0
20260510180009 61 0 7.0 12.0 0.00 0.17 0.17 94 1014.0
20260510175008 61 0 7.0 13.0 0.00 0.17 0.17 94 1014.0
20260510174009 61 0 9.0 15.0 0.00 0.17 0.17 94 1014.0
20260510173028 61 0 9.0 17.0 0.00 0.17 0.17 94 1013.7
20260510172008 61 0 8.0 15.0 0.00 0.17 0.17 93 1013.6
20260510171008 61 0 7.0 16.0 0.00 0.17 0.17 94 1013.6
20260510170010 61 0 8.0 16.0 0.00 0.17 0.17 94 1013.6
20260510165010 61 0 9.0 15.0 0.00 0.17 0.17 93 1013.5
20260510164010 62 0 9.0 16.0 0.00 0.17 0.17 93 1013.6
20260510163010 62 0 10.0 17.0 0.00 0.17 0.17 93 1013.6
20260510162010 62 0 10.0 16.0 0.00 0.17 0.17 93 1013.4
20260510161010 62 0 9.0 16.0 0.00 0.17 0.17 93 1013.2
20260510160010 62 0 10.0 16.0 0.00 0.17 0.17 93 1013.3
20260510155010 62 0 10.0 16.0 0.00 0.17 0.17 93 1013.5
20260510154010 62 0 10.0 15.0 0.00 0.17 0.17 93 1013.4
20260510153010 62 0 9.0 18.0 0.00 0.17 0.17 93 1013.6
20260510152010 62 0 10.0 17.0 0.00 0.17 0.17 93 1013.6
20260510151030 62 0 10.0 17.0 0.00 0.17 0.17 93 1013.7
20260510150010 62 0 9.0 18.0 0.00 0.17 0.17 93 1013.7
20260510145010 62 0 9.0 15.0 0.00 0.17 0.17 93 1013.8
20260510144010 62 0 10.0 15.0 0.00 0.17 0.17 93 1013.7
20260510143010 62 0 9.0 16.0 0.00 0.17 0.17 93 1013.5
20260510142010 62 0 9.0 15.0 0.00 0.17 0.17 93 1013.5
20260510141010 62 0 10.0 16.0 0.00 0.17 0.17 93 1013.6
20260510140010 62 45 9.0 16.0 0.00 0.17 0.17 93 1013.6
20260510135010 63 0 10.0 15.0 0.00 0.17 0.17 93 1013.7
20260510134010 63 0 11.0 15.0 0.00 0.17 0.17 93 1013.6
20260510133010 63 45 11.0 16.0 0.00 0.17 0.17 92 1013.7
20260510132012 63 0 10.0 17.0 0.00 0.17 0.17 92 1013.6
20260510131012 63 0 10.0 16.0 0.00 0.17 0.17 92 1013.6
20260510130012 63 45 9.0 15.0 0.00 0.17 0.17 92 1013.6
20260510125012 64 45 8.0 13.0 0.00 0.17 0.17 92 1013.7
20260510124012 64 0 9.0 16.0 0.00 0.17 0.17 92 1013.7
20260510123012 64 0 8.0 15.0 0.00 0.17 0.17 92 1013.6
20260510122032 64 0 8.0 13.0 0.00 0.17 0.17 91 1013.7
20260510121012 64 45 8.0 13.0 0.00 0.17 0.17 91 1013.6
20260510120012 65 0 7.0 11.0 0.00 0.17 0.17 91 1013.8
20260510115032 64 45 6.0 10.0 0.00 0.17 0.17 90 1013.9
20260510114011 65 45 5.0 10.0 0.00 0.17 0.17 90 1013.9
20260510113011 65 45 5.0 11.0 0.00 0.17 0.17 89 1014.0
20260510112012 66 45 5.0 10.0 0.00 0.17 0.17 88 1014.1
20260510111012 66 45 5.0 9.0 0.00 0.17 0.17 89 1014.0
20260510110011 66 45 4.0 9.0 0.00 0.17 0.17 88 1014.2
20260510105012 66 45 4.0 8.0 0.00 0.17 0.17 88 1014.2
20260510104011 66 45 4.0 9.0 0.00 0.17 0.17 87 1014.2
20260510103011 67 45 5.0 10.0 0.00 0.17 0.17 86 1014.0
20260510102032 67 45 5.0 10.0 0.00 0.17 0.17 85 1013.9
20260510101012 68 45 4.0 8.0 0.00 0.17 0.17 85 1014.0
20260510100012 68 45 3.0 7.0 0.00 0.17 0.17 84 1014.0
20260510095012 69 90 3.0 6.0 0.00 0.17 0.17 85 1014.0
20260510094033 68 45 4.0 8.0 0.00 0.17 0.17 85 1014.1
20260510093013 68 0 2.0 6.0 0.00 0.17 0.17 85 1014.0
20260510092013 69 23 2.0 4.0 0.00 0.17 0.17 83 1014.1
20260510091013 69 23 2.0 5.0 0.00 0.17 0.17 82 1014.1
20260510090013 70 203 2.0 4.0 0.00 0.17 0.17 82 1014.2
20260510085013 70 293 1.0 3.0 0.00 0.17 0.17 82 1014.2
20260510084013 70 315 2.0 4.0 0.00 0.17 0.17 82 1014.2
20260510083013 69 293 2.0 3.0 0.00 0.17 0.17 81 1014.0
20260510082013 69 23 1.0 4.0 0.00 0.17 0.17 82 1013.9
20260510081013 69 315 2.0 4.0 0.00 0.17 0.17 81 1013.7
20260510080013 70 315 2.0 4.0 0.00 0.17 0.17 82 1013.6
20260510075013 69 23 2.0 4.0 0.00 0.17 0.17 80 1013.5
20260510074013 71 315 2.0 5.0 0.00 0.17 0.17 76 1013.4
20260510073013 72 270 2.0 4.0 0.00 0.17 0.17 75 1013.4
20260510072013 72 203 2.0 5.0 0.00 0.17 0.17 72 1013.2
20260510071053 72 180 1.0 4.0 0.00 0.17 0.17 74 1013.0
20260510070013 71 180 1.0 5.0 0.00 0.17 0.17 74 1013.0
20260510065013 70 270 1.0 3.0 0.00 0.17 0.17 76 1012.9
20260510064013 69 0.0 1.0 0.00 0.17 0.17 77 1012.8
20260510063053 68 0.0 0.0 0.00 0.17 0.17 79 1012.7
20260510062013 67 0.0 0.0 0.00 0.17 0.17 78 1012.4
20260510061013 66 0.0 0.0 0.00 0.17 0.17 80 1012.5
20260510060015 66 180 1.0 6.0 0.00 0.17 0.17 81 1012.3
20260510055015 66 180 1.0 4.0 0.00 0.17 0.17 80 1012.4
20260510054055 66 203 1.0 6.0 0.01 0.17 0.17 80 1012.6
20260510053035 65 203 5.0 6.0 0.01 0.17 0.17 82 1012.7
20260510052015 64 180 4.0 6.0 0.01 0.17 0.17 83 1012.6
20260510051015 64 203 4.0 7.0 0.01 0.17 0.17 84 1012.7
20260510050035 63 180 5.0 11.0 0.05 0.17 0.17 86 1012.7
20260510045015 63 180 5.0 9.0 0.06 0.17 0.17 86 1012.6
20260510044015 64 203 6.0 9.0 0.05 0.16 0.16 85 1012.4
20260510043015 63 203 3.0 6.0 0.05 0.16 0.16 87 1012.5
20260510042015 63 270 3.0 7.0 0.05 0.16 0.16 86 1012.4
20260510041035 64 270 3.0 8.0 0.05 0.16 0.16 84 1012.1
20260510040035 65 270 6.0 11.0 0.01 0.12 0.12 81 1011.8
20260510035014 67 270 6.0 21.0 0.00 0.11 0.11 75 1012.1
20260510034035 67 0 8.0 20.0 0.00 0.11 0.11 74 1011.7
20260510033035 66 0 10.0 22.0 0.00 0.11 0.11 77 1011.4
20260510032015 66 0 16.0 31.0 0.00 0.11 0.11 79 1011.5
20260510031015 66 0 17.0 29.0 0.00 0.11 0.11 81 1011.6
20260510030014 65 0 15.0 30.0 0.00 0.11 0.11 83 1012.4
20260510025035 64 0 11.0 20.0 0.00 0.11 0.11 85 1012.7
20260510024014 64 0 8.0 18.0 0.00 0.11 0.11 87 1013.2
20260510023015 63 0 11.0 18.0 0.01 0.11 0.11 88 1013.6
20260510022017 63 0 10.0 21.0 0.01 0.11 0.11 89 1014.2
20260510021036 63 0 11.0 18.0 0.01 0.11 0.11 90 1013.9
20260510020017 62 113 8.0 16.0 0.01 0.11 0.11 92 1014.0
20260510015037 62 135 7.0 11.0 0.02 0.11 0.11 92 1014.7
20260510014017 62 248 3.0 11.0 0.05 0.11 0.11 92 1014.9
20260510013016 62 225 4.0 7.0 0.06 0.10 0.10 92 1016.1
20260510012016 62 225 2.0 8.0 0.08 0.10 0.10 92 1016.1
20260510011016 62 225 2.0 6.0 0.09 0.10 0.10 92 1015.7
20260510010016 62 158 4.0 8.0 0.09 0.10 0.10 92 1015.7
20260510005016 62 203 6.0 14.0 0.08 0.09 0.09 92 1015.8
20260510004016 62 203 7.0 12.0 0.06 0.06 0.06 92 1016.9
20260510003037 62 203 3.0 8.0 0.03 0.04 0.04 91 1017.1
20260510002016 63 203 2.0 7.0 0.02 0.02 0.02 91 1017.6
20260510001056 63 23 2.0 9.0 0.02 0.02 0.02 90 1017.9
20260510000016 63 203 5.0 12.0 0.02 0.02 0.02 90 1017.5
20260509235016 64 203 3.0 12.0 0.02 0.02 0.02 89 1017.1